User: anonymous   Login
Location: �chenoz-la-M�line
(47.6009°N, 6.1354°E)
Time: 00:26:47
(UTC+00:00)
Language:

FALCON 9 DEB - Orbit

View from above orbital plane
View from above orbital plane
View from above satellite
View from above satellite

Ground track
Ground track

The orbit data is extracted from the following two-line orbital elements,

1 46085U 20055BL  21101.87704278  .00009663  00000-0  11099-3 0  9990
2 46085  53.0108 164.4828 0011832  30.4464 329.7234 15.62755640 43245
Epoch (UTC): 11 April 2021 21:02:56
Eccentricity: 0.0011832
inclination: 53.0108°
perigee height: 372 km
apogee height: 388 km
right ascension of ascending node: 164.4828°
argument of perigee: 30.4464°
revolutions per day: 15.62755640
mean anomaly at epoch: 329.7234°
orbit number at epoch: 4324

The dashed part of the orbit path shows where the satellite is in the earth's shadow,  

DLR